[[{"header":{"parameterUnit":"m.s-1","parameterCategory":1,"la1":30.2991,"la2":30.254,"lo1":-89.0895,"lo2":-89.0444,"dy":0.0017,"dx":0.0017,"nx":28,"ny":28,"refTime":"2023-11-20T03:00:00:Z","depth":0,"parameterNumber":2,"parameterNumberName":"U-component_of_WINDS"},"data":[0,0,0,0,0,0,0,0,0,0,0,0,0,0,0,0,0,0,0,0,0,0,0,0,0,0,0,0,0,0,0,0,0,0,0,0,0,0,0,0,0,0,0,0,0,0,0,0,0,0,0,0,0,0,0,0,0,0,-0.4078,-0.4079,0,-0.4119,-0.412,-0.412,-0.4138,-0.4138,-0.4137,-0.4137,-0.4181,-0.4183,-0.4184,0,0,0,0,0,0,0,0,0,0,0,0,0,-0.4016,-0.4017,-0.4078,-0.4079,-0.4079,-0.4119,-0.412,-0.4121,-0.4138,-0.4138,-0.4137,-0.4137,-0.4181,-0.4182,-0.4184,0,0,0,0,0,0,0,0,0,0,0,0,0,-0.4049,-0.4017,-0.4078,-0.4092,-0.4094,-0.4119,-0.412,-0.4121,-0.4138,-0.4138,-0.4137,-0.4137,-0.418,-0.4182,-0.4184,-0.4198,0,0,-0.419,-0.4191,0,0,0,0,0,0,0,0,-0.4047,-0.4051,-0.409,-0.4091,-0.4093,-0.4123,-0.4114,-0.4147,-0.4138,-0.4121,-0.4137,-0.4137,-0.4162,-0.4166,-0.4174,-0.42,-0.4202,-0.419,-0.4191,-0.4192,-0.4192,0,0,0,0,0,0,0,-0.4045,-0.4049,-0.4094,-0.409,-0.4093,-0.4098,-0.4102,-0.412,-0.4142,-0.4123,-0.4124,-0.4129,-0.4163,-0.4172,-0.4175,-0.4203,-0.419,-0.4192,-0.4193,-0.4193,-0.4244,-0.4245,0,0,0,0,0,0,-0.404,-0.4047,-0.4093,-0.4096,-0.4069,-0.4099,-0.4104,-0.4114,-0.4142,-0.4146,-0.4129,-0.4129,-0.4169,-0.4173,-0.4176,-0.4195,-0.4192,-0.4194,-0.4195,-0.4244,-0.4245,-0.4245,0,0,0,0,0,0,-0.4038,-0.4044,-0.4092,-0.4072,-0.4078,-0.41,-0.4111,-0.4115,-0.4123,-0.4146,-0.415,-0.4133,-0.4169,-0.4174,-0.4193,-0.4197,-0.4195,-0.4196,-0.4244,-0.4244,-0.4245,-0.4233,0,0,0,0,0,0,-0.4036,-0.4043,-0.4048,-0.4072,-0.4079,-0.4107,-0.4111,-0.4116,-0.4126,-0.4127,-0.4152,-0.4156,-0.4169,-0.419,-0.4195,-0.42,-0.4198,-0.4244,-0.4244,-0.4245,-0.4233,-0.4233,-0.4233,0,0,0,0,0,-0.4034,-0.4043,-0.4048,-0.4054,-0.4086,-0.4107,-0.4111,-0.4126,-0.4127,-0.4132,-0.4147,-0.4155,-0.4196,-0.4192,-0.4197,-0.4203,-0.4243,-0.4244,-0.4245,-0.4233,-0.4233,-0.4233,0,0,0,0,0,0,-0.402,-0.4047,-0.4052,-0.407,-0.4086,-0.411,-0.4117,-0.4125,-0.4141,-0.4142,-0.416,-0.4165,-0.4183,-0.4195,-0.419,-0.4219,-0.422,-0.4222,-0.421,-0.421,-0.421,-0.4207,-0.4199,0,0,0,0,0,-0.4019,-0.4033,-0.4056,-0.4069,-0.4076,-0.4095,-0.4105,-0.4115,-0.4132,-0.4139,-0.4156,-0.4173,-0.419,-0.4201,-0.4218,-0.4235,-0.4241,-0.4242,-0.4242,-0.4242,-0.4243,-0.4254,-0.4255,-0.4246,-0.4246,-0.4246,0,0,-0.4017,-0.4033,-0.4041,-0.4066,-0.408,-0.4095,-0.4101,-0.4116,-0.4127,-0.4142,-0.4161,-0.4174,-0.4194,-0.4213,-0.4222,-0.4223,-0.4247,-0.4242,-0.4242,-0.4243,-0.4255,-0.4255,-0.4256,-0.4247,-0.4247,-0.4247,0,0,-0.402,-0.4034,-0.4046,-0.406,-0.408,-0.4093,-0.4096,-0.4119,-0.4128,-0.4147,-0.4158,-0.4172,-0.4201,-0.4215,-0.4226,-0.4236,-0.4244,-0.4241,-0.424,-0.4251,-0.4252,-0.4252,-0.4256,-0.4257,-0.4242,-0.4242,-0.4242,0,-0.4015,-0.4037,-0.4052,-0.4066,-0.4078,-0.4091,-0.4104,-0.4117,-0.4142,-0.415,-0.4151,-0.4188,-0.4202,-0.4225,-0.4227,-0.4236,-0.424,-0.4238,-0.425,-0.4251,-0.4252,-0.4256,-0.4257,-0.4242,-0.4242,-0.4242,-0.4242,0,-0.403,-0.4045,-0.4053,-0.4076,-0.4088,-0.4102,-0.412,-0.413,-0.4139,-0.4152,-0.4172,-0.4191,-0.4212,-0.4218,-0.4227,-0.4242,-0.4242,-0.4246,-0.4249,-0.4252,-0.4256,-0.4258,-0.4241,-0.4241,-0.4241,-0.4241,0,0,-0.4025,-0.4057,-0.406,-0.4071,-0.4095,-0.4107,-0.4122,-0.4142,-0.4151,-0.4168,-0.4182,-0.4206,-0.421,-0.4223,-0.4234,-0.4243,-0.425,-0.4246,-0.4247,-0.4247,-0.4269,-0.4266,-0.4267,-0.4256,-0.4256,-0.4256,-0.4267,0,-0.4032,-0.4059,-0.4073,-0.4094,-0.4108,-0.4122,-0.4135,-0.4151,-0.4164,-0.4179,-0.4193,-0.421,-0.4214,-0.4222,-0.4232,-0.4247,-0.4255,-0.4247,-0.4269,-0.427,-0.4264,-0.4269,-0.4266,-0.4275,-0.4269,-0.4269,-0.4269,0,-0.4044,-0.406,-0.4082,-0.4105,-0.4112,-0.4123,-0.4143,-0.4157,-0.4176,-0.4185,-0.4199,-0.421,-0.4227,-0.4228,-0.4252,-0.4246,-0.4257,-0.4266,-0.4267,-0.427,-0.427,-0.4273,-0.4278,-0.428,-0.4272,-0.4272,-0.4272,0,-0.4039,-0.4067,-0.4084,-0.4093,-0.4119,-0.4127,-0.4139,-0.4158,-0.417,-0.4187,-0.4195,-0.4215,-0.4226,-0.4241,-0.4257,-0.4256,-0.428,-0.4282,-0.4289,-0.4288,-0.4293,-0.4293,-0.4301,-0.4299,-0.4299,-0.4299,-0.4299,0,-0.4045,-0.4058,-0.4082,-0.4092,-0.4108,-0.4124,-0.4139,-0.4152,-0.4169,-0.4183,-0.4196,-0.4209,-0.423,-0.4245,-0.4258,-0.4277,-0.4282,-0.429,-0.4293,-0.4289,-0.4288,-0.4296,-0.4296,-0.43,-0.43,-0.4299,-0.4299,0,-0.4042,-0.4058,-0.4078,-0.4102,-0.4108,-0.4118,-0.4139,-0.415,-0.4164,-0.4181,-0.4186,-0.4207,-0.4227,-0.4244,-0.427,-0.4279,-0.4298,-0.4302,-0.4291,-0.4293,-0.4299,-0.4298,-0.4313,-0.4316,-0.4311,-0.4311,-0.4311,0,-0.4045,-0.4056,-0.4081,-0.4091,-0.4102,-0.4118,-0.4129,-0.4146,-0.4158,-0.4181,-0.419,-0.421,-0.4227,-0.4258,-0.4276,-0.4296,-0.4301,-0.4305,-0.4304,-0.43,-0.4302,-0.4301,-0.4303,-0.4305,-0.4304,-0.4304,-0.4304,0,-0.405,-0.4057,-0.4073,-0.4092,-0.4105,-0.4121,-0.4137,-0.4145,-0.4165,-0.4178,-0.4198,-0.4211,-0.4237,-0.4258,-0.428,-0.4293,-0.4303,-0.4304,-0.4307,-0.4303,-0.4297,-0.4301,-0.4291,-0.4304,-0.4304,-0.4304,-0.4304,-0.4304,-0.405,-0.406,-0.4079,-0.4097,-0.4111,-0.4126,-0.4138,-0.4152,-0.4169,-0.4191,-0.42,-0.4221,-0.4241,-0.4272,-0.4285,-0.4301,-0.4303,-0.4307,-0.4308,-0.4309,-0.4308,-0.4293,-0.4306,-0.4306,-0.4306,-0.4306,-0.4306,0,-0.4055,-0.4068,-0.4084,-0.4106,-0.4121,-0.4128,-0.4146,-0.4158,-0.4175,-0.4193,-0.4209,-0.4232,-0.4252,-0.4272,-0.4293,-0.4303,-0.4308,-0.4308,-0.4308,-0.4311,-0.4305,-0.4301,-0.4304,-0.4304,-0.4304,-0.4304,-0.4304,-0.4304,-0.406,-0.4077,-0.4087,-0.4112,-0.4125,-0.4145,-0.4155,-0.4169,-0.4183,-0.4208,-0.4225,-0.4237,-0.4256,-0.4279,-0.4298,-0.4304,-0.4311,-0.431,-0.4317,-0.4311,-0.4311,-0.4311,-0.4307,-0.4311,-0.4311,-0.4321,-0.4321,-0.4321]},{"header":{"parameterUnit":"m.s-1","parameterCategory":1,"la1":30.2991,"la2":30.254,"lo1":-89.0895,"lo2":-89.0444,"dy":0.0017,"dx":0.0017,"nx":28,"ny":28,"refTime":"2023-11-20T03:00:00:Z","depth":0,"parameterNumber":3,"parameterNumberName":"V-component_of_WINDS"},"data":[0,0,0,0,0,0,0,0,0,0,0,0,0,0,0,0,0,0,0,0,0,0,0,0,0,0,0,0,0,0,0,0,0,0,0,0,0,0,0,0,0,0,0,0,0,0,0,0,0,0,0,0,0,0,0,0,0,0,5.7585,5.7586,0,5.7687,5.7688,5.7689,5.7694,5.7693,5.7691,5.769,5.7794,5.7798,5.7802,0,0,0,0,0,0,0,0,0,0,0,0,0,5.7395,5.7398,5.7585,5.7586,5.7587,5.7687,5.7688,5.7689,5.7694,5.7693,5.7691,5.769,5.7793,5.7797,5.7802,0,0,0,0,0,0,0,0,0,0,0,0,0,5.7485,5.7399,5.7584,5.7601,5.7604,5.7686,5.7688,5.769,5.7694,5.7692,5.7691,5.7689,5.7791,5.7797,5.7803,5.7875,0,0,5.7821,5.7823,0,0,0,0,0,0,0,0,5.748,5.7492,5.7598,5.76,5.7603,5.7676,5.7659,5.7752,5.7695,5.766,5.769,5.7688,5.7756,5.7765,5.7788,5.7879,5.7884,5.7821,5.7825,5.7827,5.7829,0,0,0,0,0,0,0,5.7473,5.7487,5.7625,5.7599,5.7603,5.7604,5.7615,5.7677,5.7717,5.7663,5.7663,5.7676,5.7757,5.7782,5.779,5.7885,5.7821,5.7826,5.783,5.7832,5.8045,5.8047,0,0,0,0,0,0,5.7464,5.7482,5.7622,5.7628,5.7536,5.7609,5.7621,5.7654,5.7716,5.7724,5.7677,5.7675,5.7773,5.7783,5.7794,5.7885,5.7827,5.7832,5.7836,5.8042,5.8045,5.8047,0,0,0,0,0,0,5.746,5.7476,5.7618,5.7555,5.7574,5.7614,5.7651,5.7657,5.7682,5.7727,5.7734,5.7695,5.7772,5.7786,5.7855,5.7888,5.7835,5.784,5.804,5.8043,5.8046,5.8065,0,0,0,0,0,0,5.7454,5.7475,5.7502,5.7556,5.7577,5.7677,5.7653,5.7661,5.7692,5.7691,5.7746,5.7753,5.7772,5.7847,5.7861,5.7895,5.7845,5.8037,5.8041,5.8045,5.8062,5.8069,5.8074,0,0,0,0,0,5.7447,5.7502,5.7503,5.752,5.7612,5.7679,5.7691,5.7712,5.7695,5.7723,5.7752,5.7751,5.7882,5.7854,5.787,5.7906,5.8035,5.804,5.8045,5.8059,5.8067,5.8074,0,0,0,0,0,0,5.745,5.751,5.7511,5.7585,5.7627,5.768,5.7716,5.7719,5.7766,5.7763,5.7787,5.7799,5.7869,5.7894,5.7862,5.7981,5.7957,5.7965,5.7962,5.797,5.7976,5.7969,5.785,0,0,0,0,0,5.746,5.7509,5.7558,5.7619,5.764,5.7674,5.7704,5.7717,5.7761,5.7778,5.7812,5.7855,5.7906,5.7939,5.7988,5.8065,5.8078,5.8098,5.8105,5.811,5.8117,5.8162,5.8173,5.8063,5.8063,5.8063,0,0,5.7479,5.7518,5.7547,5.7621,5.7654,5.7706,5.7689,5.7743,5.7782,5.7786,5.7855,5.7882,5.7931,5.8005,5.804,5.8029,5.815,5.8116,5.812,5.8124,5.8168,5.8179,5.8188,5.8067,5.8066,5.8066,0,0,5.7542,5.7575,5.7631,5.7666,5.7718,5.7741,5.7754,5.7806,5.7825,5.7894,5.7899,5.7945,5.8032,5.8068,5.8098,5.8177,5.8178,5.8192,5.8225,5.8269,5.8278,5.8286,5.8316,5.8327,5.8199,5.8199,5.8199,0,5.756,5.7637,5.7659,5.7714,5.7747,5.7755,5.7812,5.7844,5.7909,5.7932,5.7919,5.803,5.8064,5.8148,5.8167,5.819,5.8208,5.8186,5.8275,5.8283,5.8291,5.832,5.8331,5.82,5.82,5.82,5.82,0,5.7658,5.7712,5.7751,5.7815,5.7852,5.7908,5.7939,5.7974,5.7984,5.8008,5.808,5.8121,5.818,5.82,5.8209,5.8287,5.8279,5.827,5.8246,5.8302,5.833,5.8341,5.8202,5.8202,5.8201,5.8201,0,0,5.7725,5.7802,5.7816,5.7847,5.7905,5.7948,5.8005,5.8063,5.8094,5.8139,5.8188,5.8263,5.8256,5.829,5.8303,5.8341,5.8405,5.8329,5.833,5.8343,5.8495,5.8503,5.8515,5.8406,5.8408,5.841,5.8492,0,5.7796,5.7898,5.792,5.8008,5.806,5.8068,5.8118,5.816,5.8185,5.8233,5.826,5.8314,5.8299,5.832,5.8358,5.8389,5.8436,5.8383,5.8454,5.8456,5.8443,5.8529,5.8537,5.8613,5.8503,5.8504,5.8506,0,5.7891,5.7941,5.8035,5.809,5.8112,5.8156,5.8213,5.8258,5.8307,5.8322,5.8361,5.8371,5.8432,5.8405,5.849,5.8454,5.8484,5.8504,5.8507,5.8516,5.8485,5.8542,5.8637,5.8649,5.8523,5.8521,5.852,0,5.7934,5.8023,5.8092,5.8117,5.8182,5.8214,5.8242,5.8289,5.8324,5.8373,5.8396,5.8452,5.8482,5.8526,5.8551,5.8529,5.8636,5.861,5.8652,5.8651,5.8675,5.8673,5.8777,5.8691,5.8691,5.869,5.869,0,5.8011,5.8069,5.8112,5.8154,5.822,5.8245,5.8309,5.8338,5.838,5.8428,5.8438,5.8484,5.8514,5.8564,5.8584,5.8654,5.8667,5.8682,5.8687,5.8682,5.8681,5.8704,5.87,5.8694,5.8693,5.8692,5.8692,0,5.807,5.8101,5.8177,5.8233,5.8248,5.8294,5.8342,5.8385,5.841,5.8472,5.8488,5.8528,5.8588,5.8617,5.8691,5.8705,5.8784,5.8784,5.8768,5.877,5.8811,5.8808,5.8935,5.8954,5.8853,5.8854,5.8855,0,5.8118,5.8163,5.8225,5.8259,5.8289,5.8342,5.8379,5.8405,5.8442,5.8503,5.8538,5.8598,5.8648,5.8744,5.878,5.8837,5.884,5.8881,5.8849,5.8844,5.8844,5.8842,5.8847,5.8887,5.8888,5.8889,5.889,0,5.8202,5.8216,5.8267,5.8326,5.8369,5.8415,5.8461,5.8488,5.8522,5.8564,5.8626,5.8665,5.8741,5.8802,5.8863,5.8892,5.8898,5.8899,5.8913,5.8909,5.8898,5.8907,5.8786,5.8896,5.8896,5.8895,5.8895,5.8895,5.8258,5.83,5.8351,5.8409,5.8447,5.849,5.8533,5.8565,5.8617,5.8682,5.8695,5.8761,5.8811,5.8892,5.8924,5.8977,5.8968,5.8987,5.8992,5.8996,5.9,5.8889,5.8988,5.8988,5.8988,5.8987,5.8987,0,5.8345,5.8378,5.8431,5.8496,5.8543,5.8544,5.8595,5.8634,5.8693,5.8738,5.8788,5.8861,5.892,5.8962,5.9022,5.9057,5.9061,5.9072,5.9071,5.9078,5.9003,5.8987,5.9068,5.9068,5.9068,5.9068,5.9068,5.9068,5.8395,5.8466,5.8486,5.8577,5.861,5.8676,5.8706,5.8747,5.8784,5.8864,5.8914,5.8941,5.8986,5.9051,5.9106,5.9117,5.9139,5.9151,5.9162,5.9091,5.9083,5.9075,5.906,5.9155,5.9155,5.9233,5.9234,5.9234]}]]